This is the latest recevied weather packets stored in our database for station/object KB4MOX. If no packets are shown the sender has not sent any weather packets the latest 10 day(s).
| Time | Temp. | Humidity | Pressure | Rain* | Wind** | Luminosity | Snow |
|---|---|---|---|---|---|---|---|
| 1787920374 | 22.22° C | 98% | 1017.6 hPa | 0 mm | - | 59 W/m² | - |
| 1787920072 | 22.22° C | 98% | 1017.5 hPa | 0 mm | - | 52 W/m² | - |
| 1787919767 | 22.22° C | 98% | 1017.4 hPa | 1.78 mm | - | 53 W/m² | - |
| 1787919466 | 22.22° C | 98% | 1017.2 hPa | 1.78 mm | - | 49 W/m² | - |
| 1787919162 | 22.22° C | 98% | 1017.5 hPa | 0 mm | - | 48 W/m² | - |
| 1787918862 | 22.22° C | 98% | 1017.5 hPa | 0 mm | - | 43 W/m² | - |
| 1787918557 | 22.22° C | 98% | 1017.4 hPa | 0 mm | - | 38 W/m² | - |
| 1787918255 | 22.22° C | 98% | 1017.4 hPa | 0 mm | - | 27 W/m² | - |
| 1787917950 | 21.67° C | 98% | 1017.1 hPa | 0 mm | - | 25 W/m² | - |
| 1787917645 | 21.67° C | 98% | 1017.2 hPa | 0 mm | - | 24 W/m² | - |
| 1787917342 | 21.67° C | 98% | 1016.9 hPa | 0 mm | - | 21 W/m² | - |
| 1787917042 | 21.67° C | 98% | 1017 hPa | 0 mm | - | 18 W/m² | - |
| 1787916742 | 21.11° C | 98% | 1017 hPa | 0 mm | - | 16 W/m² | - |
| 1787916436 | 21.11° C | 98% | 1016.9 hPa | 0 mm | - | 13 W/m² | - |
| 1787916133 | 21.11° C | 98% | 1016.6 hPa | 0 mm | - | 11 W/m² | - |
| 1787915833 | 21.11° C | 98% | 1016.5 hPa | 0 mm | - | 7 W/m² | - |
| 1787915528 | 21.11° C | 98% | 1016.7 hPa | 0 mm | - | 4 W/m² | - |
| 1787915222 | 20.56° C | 98% | 1016.6 hPa | 0 mm | - | 3 W/m² | - |
| 1787914921 | 20.56° C | 98% | 1016.7 hPa | 0 mm | - | 1 W/m² | - |
| 1787914620 | 20.56° C | 98% | 1016.8 hPa | 0 mm | - | 1 W/m² | - |
| 1787914316 | 20.56° C | 98% | 1016.7 hPa | 0 mm | - | 0 W/m² | - |
| 1787914015 | 20.56° C | 98% | 1016.7 hPa | 0 mm | - | 0 W/m² | - |
| 1787913714 | 20.56° C | 98% | 1016.7 hPa | 0 mm | - | 0 W/m² | - |
| 1787913409 | 20.56° C | 98% | 1016.7 hPa | 0 mm | - | 0 W/m² | - |
| 1787913104 | 20.56° C | 98% | 1016.6 hPa | 0 mm | - | 0 W/m² | - |
* Rain latest hour (hover to see other rain measurements)
** Current wind speed in m/s (hover to see current wind gust speed)